Notices

What's New in latest Release from April 7th, 2021:

- Updated Glossary, including Speed of Maximum Gust, and Total Hourly Precipitation

- Updated national and regional climate services offices contacts and prices information

- Addition of station inventory lists for 1981-2010, 1971-2000, and 1961-1990 Normals.

If you haven't already, please take our survey and provide feedback about our website: https://eccc.sondage-survey.ca/f/LanguageSelection.aspx?s=442ca660-fcf1-47c0-95a9-59707d6fd709

Hourly Data Report for December 26, 2020

CARBERRY CS
MANITOBA
Current Station Operator: ECCC - MSC

49°54'20.900" N
99°21'26.800" W
383.50 m
5010547
71170
WZE

Download Data

Hourly Data (December 2020)
Hourly Data Report for December 26, 2020
TIME
LST
Temp Definition
°C
Dew Point Definition
°C
Rel Hum Definition
%
Precip. Amount Definition
mm

Wind Dir Definition
10's deg

Wind Spd Definition
km/h
Visibility Definition
km
Stn Press Definition
kPa
Hmdx Definition


Wind Chill Definition


Weather Definition


00:00 -12.7 -14.6 85 0.0 33 4   96.82   -15 LegendNANA
01:00 -13.7 -15.1 89 0.0 29 6   96.83   -18 LegendNANA
02:00 -12.0 -13.2 91 0.0 28 6   96.83   -16 LegendNANA
03:00 -13.7 -15.5 86 0.0 27 7   96.89   -18 LegendNANA
04:00 -12.2 -13.6 89 0.0 29 8   96.93   -17 LegendNANA
05:00 -10.8 -11.8 92 0.0 34 4   96.88   -13 LegendNANA
06:00 -7.9 -9.8 86 0.0 2 7   96.87   -12 LegendNANA
07:00 -7.8 -9.5 87 0.0 3 5   96.89   -10 LegendNANA
08:00 -7.4 -9.2 87 0.0 6 4   96.89   -9 LegendNANA
09:00 -7.8 -9.3 88 0.0 7 4   96.87   -10 LegendNANA
10:00 -7.3 -9.2 86 0.0 7 10   96.89   -12 LegendNANA
11:00 -7.2 -9.5 84 0.0 5 12   96.88   -13 LegendNANA
12:00 -7.4 -9.2 86 0.0 4 13   96.87   -13 LegendNANA
13:00 -7.5 -9.9 83 0.0 2 11   96.80   -13 LegendNANA
14:00 -7.4 -10.1 81 0.0 1 8   96.76   -11 LegendNANA
15:00 -7.4 -10.1 81 0.0 4 13   96.76   -13 LegendNANA
16:00 -7.6 -10.0 83 0.0 5 15   96.72   -14 LegendNANA
17:00 -7.8 -9.9 85 0.0 6 10   96.73   -13 LegendNANA
18:00 -8.2 -9.4 91 0.0 6 8   96.72   -12 LegendNANA
19:00 -8.3 -9.3 92 0.0 5 7   96.73   -12 LegendNANA
20:00 -8.4 -9.3 93 0.0 6 5   96.77   -11 LegendNANA
21:00 -8.6 -9.6 92 0.2 5 6   96.76   -12 LegendNANA
22:00 -8.7 -9.8 92 0.0 4 4   96.76   -11 LegendNANA
23:00 -9.8 -10.6 94 0.0   0   96.74     LegendNANA

Notes on Data Quality.

Legend

  • E = Estimated
  • M = Missing
  • NA = Not Available*
  • [empty] = Indicates an unobserved value
Date modified: